{"data":{"norad_id":49420,"intl_designator":"2021-104N","name":"STARLINK-3110","alt_names":[],"object_type":"PAYLOAD","status":"ACTIVE","operator":null,"country":"US","launch_date":"2021-11-13","launch_site_code":"AFETR","launch_vehicle":null,"mission":null,"orbit_class":"UNKNOWN","rcs_meters":null,"size_class":null,"mass_kg":null,"dimensions":null,"purposes":["comms"],"wikipedia_slug":null,"has_3d_model":false,"image_url":null,"decayed_at":null,"tle_current":{"epoch":"2026-09-20T03:57:48.699072Z","epoch_age_seconds":70275,"freshness":"FRESH","line1":"1 49420U 21104N   26263.16514698  .00000797  00000+0  34730-4 0  9999","line2":"2 49420  53.1600  61.2239 0001088  92.9957 267.1170 15.34382067268185","mean_motion":15.34382067,"eccentricity":0.0001088,"inclination_deg":53.16,"raan_deg":61.2239,"arg_perigee_deg":92.9957,"mean_anomaly_deg":267.117,"bstar":3.473e-5,"rev_number":26818,"period_min":93.848854921478,"perigee_km":462.01225216414,"apogee_km":463.50083059874,"semimajor_km":6840.8935413814,"source":"CELESTRAK","updated_at":"2026-09-20T09:00:39.257300Z"}}}